Regional Weather Roundup
Issued by NWS Albany, NY

Current Version | Previous Version | Text Only | Print | Product List | Glossary On
Versions: 1 2 3 4 5 6 7 8 9 10 11 12 13 14 15 16 17 18 19 20 21 22 23 24 25 26 27 28 29 30 31 32 33 34 35 36 37 38 39 40 41 42 43 44 45 46 47 48 49 50
488
ASUS41 KALY 041910
RWRALY

NEW YORK STATE HOURLY WEATHER ROUNDUP
NATIONAL WEATHER SERVICE ALBANY NY
300 PM EDT WED MAY 04 2016

NOTE: "FAIR" INDICATES FEW OR NO CLOUDS BELOW 12,000 FEET WITH NO
SIGNIFICANT WEATHER AND/OR NO OBSTRUCTIONS TO VISIBILITY.

NYZ032-033-038>043-046>054-057>066-NYZ062>081-082-084-042000-
EAST


CITY           SKY/WX    TMP DP  RH WIND       PRES   REMARKS
ALBANY         LGT RAIN  49  46  90 S6        29.80S FOG
GLENS FALLS    LGT RAIN  52  45  77 SE6       29.80S
POUGHKEEPSIE   CLOUDY    51  47  86 N8        29.76F FOG
MONTGOMERY     CLOUDY    50  48  93 NE9       29.75F
WHITE PLAINS   CLOUDY    49  44  83 E12       29.73F
ISLIP          CLOUDY    49  44  83 NE12G22   29.73F
NEW YORK CITY  LGT RAIN  50  48  93 NE16      29.74F FOG
CENTRAL PARK   CLOUDY    49  44  83 NE12      29.76F
$$

NYZ005>009-017-018-044>046-055-056-042000-
CENTRAL


CITY           SKY/WX    TMP DP  RH WIND       PRES   REMARKS
FULTON         CLOUDY    64  45  49 VRB5      29.70F
SYRACUSE       CLOUDY    60  51  72 NE9       29.69F
ROME           CLOUDY    57  49  74 SE14      29.74F
ELMIRA         LGT RAIN  55  50  83 CALM      29.68F
BINGHAMTON     CLOUDY    50  47  89 SE10      29.70F
MONTICELLO     CLOUDY    45  45 100 E7        29.76S
$$

NYZ026>034-041>043-087-042000-
NORTH


CITY           SKY/WX    TMP DP  RH WIND       PRES   REMARKS
WATERTOWN      CLOUDY    58  48  69 N9        29.73F
FORT DRUM      NOT AVBL
MASSENA        CLOUDY    55  43  63 NE14      29.79F
SARANAC LAKE   CLOUDY    54  41  61 S6        29.74S
PLATTSBURGH    CLOUDY    57  44  62 SE10      29.80F
$$

NYZ001>004-010>016-019>021-085-042000-
WEST


CITY           SKY/WX    TMP DP  RH WIND       PRES   REMARKS
NIAGARA FALLS  PTSUNNY   62  40  44 NE15      29.67F
BUFFALO        CLOUDY    62  38  40 NE13      29.67F
DUNKIRK        MOSUNNY   60  44  55 N9        29.67F
JAMESTOWN      MOSUNNY   57  36  44 SW3       29.65F
WELLSVILLE     CLOUDY    58  39  49 CALM      29.67F
ROCHESTER      CLOUDY    59  46  62 NE12      29.70F
PENN YAN       CLOUDY    61  43  51 CALM      29.68F
$$

             KEY
       WCI = WIND CHILL INDEX
       VSB = VISIBILITY
       HX  = HEAT INDEX
$$




USA.gov is the U.S. government's official web portal to all federal, state and local government web resources and services.